EDT,Max TemperatureF,Mean TemperatureF,Min TemperatureF,Max Dew PointF,MeanDew PointF,Min DewpointF,Max Humidity, Mean Humidity, Min Humidity, Max Sea Level PressureIn, Mean Sea Level PressureIn, Min Sea Level PressureIn, Max VisibilityMiles, Mean VisibilityMiles, Min VisibilityMiles, Max Wind SpeedMPH, Mean Wind SpeedMPH, Max Gust SpeedMPH,PrecipitationIn, CloudCover, Events, WindDirDegrees
2012-8-1,80,71,61,68,63,58,100,79,58,29.95,29.91,29.85,10,10,8,10,4,16,0.01,6,Rain-Thunderstorm,180
2012-8-2,84,72,60,67,63,59,100,73,46,29.94,29.90,29.87,10,5,0,10,2,14,0.00,4,Fog,254
2012-8-3,85,74,62,67,64,61,100,76,51,30.17,30.03,29.92,10,10,8,16,2,22,T,2,Rain-Thunderstorm,291
2012-8-4,89,74,59,68,64,59,100,75,50,30.28,30.23,30.18,10,6,0,20,4,28,0.00,3,Fog-Thunderstorm,181
2012-8-5,84,76,67,72,68,64,93,79,65,30.21,30.04,29.87,10,9,2,16,10,25,0.38,3,Rain,190
2012-8-6,72,63,54,67,58,54,100,77,53,30.06,30.02,29.95,10,10,10,13,5,17,0.00,4,,310
2012-8-7,80,66,51,61,54,49,100,68,35,30.08,30.04,29.98,10,6,0,12,3,17,0.00,3,Fog,207
2012-8-8,83,68,53,64,58,53,100,72,43,30.06,30.02,29.99,10,10,2,8,1,10,0.00,1,,350
2012-8-9,83,71,59,68,64,60,100,78,55,30.03,29.99,29.92,10,4,0,12,2,16,1.26,6,Fog-Rain-Thunderstorm,167
2012-8-10,76,70,64,70,66,64,100,90,79,29.96,29.93,29.88,10,5,0,13,4,20,0.58,7,Fog-Rain-Thunderstorm,159
2012-8-11,77,70,63,70,66,63,100,85,69,29.95,29.92,29.88,10,7,0,16,5,21,0.02,6,Fog-Rain,163
2012-8-12,80,71,61,67,63,56,100,73,45,29.97,29.93,29.89,10,6,0,16,4,24,0.01,3,Fog,230
2012-8-13,76,66,56,65,60,55,100,81,61,30.01,29.98,29.94,10,9,2,10,1,14,0.00,5,,312
2012-8-14,78,69,59,65,61,56,100,77,54,30.01,29.99,29.93,10,6,0,10,2,15,0.00,6,Fog,200
2012-8-15,77,70,62,67,63,61,100,84,68,29.95,29.92,29.90,10,8,1,9,1,12,0.21,6,Rain,337
2012-8-16,77,67,56,63,60,56,100,77,53,29.95,29.92,29.87,10,6,0,15,4,22,0.01,3,Fog,306
2012-8-17,80,67,54,66,59,55,100,79,58,29.91,29.85,29.77,10,6,0,13,3,,0.00,4,Fog-Rain-Thunderstorm,221
2012-8-18,70,59,48,58,52,47,100,72,44,30.02,29.93,29.88,10,7,0,16,4,21,0.00,3,Fog,308
2012-8-19,72,59,46,56,49,46,100,71,41,30.07,30.02,29.96,10,6,0,7,1,10,0.00,3,Fog,104
2012-8-20,78,62,46,56,50,46,100,70,39,29.99,29.96,29.89,10,6,0,10,1,11,0.01,4,Fog,231
2012-8-21,73,62,50,58,53,49,96,69,41,30.15,30.05,29.95,10,10,8,13,3,18,0.00,3,Rain,321
2012-8-22,77,62,47,57,50,45,100,67,33,30.21,30.17,30.13,10,6,0,9,2,18,0.00,2,Fog,234
2012-8-23,80,65,49,61,55,49,100,71,42,30.19,30.17,30.13,10,8,1,14,3,21,0.11,2,Rain,269
2012-8-24,81,69,56,63,58,55,100,73,45,30.28,30.23,30.19,10,5,0,9,2,13,0.01,3,Fog,190
2012-8-25,83,68,53,65,58,53,100,74,47,30.36,30.32,30.28,10,5,0,13,4,15,0.00,2,Fog-Thunderstorm,191
2012-8-26,84,71,57,63,60,57,100,72,43,30.38,30.31,30.23,10,10,4,10,2,13,0.00,1,,195
2012-8-27,80,68,56,66,62,57,100,77,54,30.23,30.09,29.93,10,9,2,14,4,18,0.29,5,Rain,196
2012-8-28,76,66,56,66,62,47,100,81,61,29.98,29.88,29.83,10,7,1,17,6,25,0.25,4,Rain,305
2012-8-29,70,58,45,50,46,43,92,66,40,30.05,30.01,29.99,10,10,10,15,6,20,0.00,1,,289
2012-8-30,77,60,43,55,49,45,100,71,41,30.06,30.01,29.95,10,8,0,13,4,20,0.00,0,Fog,227
2012-8-31,81,72,62,65,55,45,100,69,38,29.98,29.90,29.80,10,10,7,6,4,8,0.01,2,Rain,237